User: anonymous   Login
Location: Unspecified
(0.0000°N, 0.0000°E)
Time: 13:21:40
(UTC+00:00)
Language:

CANX 3B (BRITE-ASRA) - Orbit

View from above orbital plane
View from above orbital plane
View from above satellite
View from above satellite

Ground track
Ground track

The orbit data is extracted from the following two-line orbital elements,

1 39091U 13009F   17023.56525095 -.00000001  00000-0  15194-4 0  9991
2 39091  98.5608 229.6816 0010915  22.6881 337.4785 14.35011643204750
Epoch (UTC): 23 January 2017 13:33:57
Eccentricity: 0.0010915
inclination: 98.5608°
perigee height: 767 km
apogee height: 783 km
right ascension of ascending node: 229.6816°
argument of perigee: 22.6881°
revolutions per day: 14.35011643
mean anomaly at epoch: 337.4785°
orbit number at epoch: 20475

The dashed part of the orbit path shows where the satellite is in the earth's shadow,  

DLR